Regional Weather Roundup
Issued by NWS

Home | Current Version | Previous Version | Graphics & Text | Print | Product List | Glossary On
Versions: 1 2 3 4 5 6 7 8 9 10 11 12 13 14 15 16 17 18 19 20 21 22 23 24 25 26 27 28 29 30 31 32 33 34 35 36 37 38 39 40 41 42 43 44 45 46 47 48 49 50
000
ASUS43 KIND 260300
RWRIN

WEATHER ROUNDUP FOR INDIANA
NATIONAL WEATHER SERVICE INDIANAPOLIS IN
1100 PM EDT SUN JUN 25 2017

NOTE: "FAIR" INDICATES FEW OR NO CLOUDS BELOW 12,000 FEET WITH NO
SIGNIFICANT WEATHER AND/OR OBSTRUCTIONS TO VISIBILITY.

* - STATION DOES NOT REPORT WEATHER SUCH AS PRECIPITATION OR FOG.

+ - STATION NOT QUALITY CONTROLLED BY THE NATIONAL WEATHER SERVICE.
    USE DATA WITH CAUTION...ESPECIALLY DEWPOINT AND RELATIVE
    HUMIDITY OBSERVATIONS.

INZ001>003-010>013-019-020-260400-
NORTHWEST INDIANA

CITY           SKY/WX    TMP DP  RH WIND       PRES   REMARKS
GARY /AIRPORT/ PTCLDY    64  45  48 W14       30.11R
KNOX *+        CLEAR     63  37  39 W10G16    30.10R
MONTICELLO +   CLEAR     62  49  62 W7        30.12R

$$

LMZ046-743>745-260400-
SOUTHERN LAKE MICHIGAN

STATION/POSITION TIME  TEMP    WIND        PRES    WAVE
                       AIR SEA DIR/SP/G            HT
                 (UTC) (F)     (DEG/KT/KT) (MB)    (FT)
BURNS HARBOR     0240   65     290/ 18/ 21 1019.3R
MICHIGAN CITY    0230   65     260/ 22/ 24   N/A
5NW MICH CITY    0250   65 67  300/ 16/ 19   N/A     4

$$

INZ004-005-014>016-021>024-260400-
NORTH CENTRAL INDIANA

CITY           SKY/WX    TMP DP  RH WIND       PRES   REMARKS
GOSHEN         LGT RAIN  63  49  60 W7        30.08R
SOUTH BEND     CLOUDY    58  56  93 W5        30.09F

$$

INZ006>009-017-018-025>027-260400-
NORTHEAST INDIANA

CITY           SKY/WX    TMP DP  RH WIND       PRES   REMARKS
FORT WAYNE     PTCLDY    62  49  62 SW7       30.10R
KENDALLVILLE + CLOUDY    63  48  59 CALM      30.09R

$$

INZ028-029-035-036-043>045-051>053-260400-
WEST CENTRAL INDIANA

CITY           SKY/WX    TMP DP  RH WIND       PRES   REMARKS
LAFAYETTE      CLEAR     61  49  64 NW7       30.13R
TERRE HAUTE    CLEAR     64  47  53 W6        30.15R

$$

INZ030>032-037>040-046>048-054>057-064-065-260400-
CENTRAL INDIANA

CITY           SKY/WX    TMP DP  RH WIND       PRES   REMARKS
GREENWOOD *+   MOCLDY    65  48  53 CALM      30.15R
INDIANAPOLIS   PTCLDY    64  48  56 W8        30.13R
-EAGLE CREEK   CLEAR     65  48  54 NW7       30.13R
KOKOMO +       PTCLDY    62  50  64 W7        30.13R
MT COMFORT *+  CLEAR     61  52  72 NW3       30.13R
SHELBYVILLE    PTCLDY    63  49  60 W5        30.13R

$$

INZ033-034-041-042-049-050-058-059-260400-
EAST CENTRAL INDIANA

CITY           SKY/WX    TMP DP  RH WIND       PRES   REMARKS
MUNCIE         PTCLDY    61  52  72 W3        30.12R
RICHMOND +     PTCLDY    59  52  77 CALM      30.14R

$$

INZ060-061-067>069-081>083-085>088-260400-
SOUTHWEST INDIANA

CITY           SKY/WX    TMP DP  RH WIND       PRES   REMARKS
EVANSVILLE     MOCLDY    70  49  47 NW6       30.16R
HUNTINGBURG *+ CLEAR     66  52  60 NW3       30.16R

$$

INZ062-063-066-070>080-084-089>092-260400-
SOUTH CENTRAL AND SOUTHEAST INDIANA

CITY           SKY/WX    TMP DP  RH WIND       PRES   REMARKS
BLOOMINGTON    CLEAR     65  45  48 NW3       30.15R
MADISON *+     PTCLDY    61  55  82 CALM      30.16R
SEYMOUR +      CLEAR    N/A N/A N/A CALM      30.14R

$$





USA.gov is the U.S. government's official web portal to all federal, state and local government web resources and services.